Regional Weather Roundup
Issued by NWS Goodland, KS

Home | Current Version | Previous Version | Graphics & Text | Print | Product List | Glossary Off
Versions: 1 2 3 4 5 6 7 8 9 10 11 12 13 14 15 16 17 18 19 20 21 22 23 24 25 26 27 28 29 30 31 32 33 34 35 36 37 38 39 40 41 42 43 44 45 46 47 48 49 50

000
ASUS43 KGLD 020508
RWRGLD

GOODLAND FORECAST AREA HOURLY WEATHER ROUNDUP
NATIONAL WEATHER SERVICE GOODLAND KS
1000 PM MST SUN MAR 01 2015

...OFFICIAL OBSERVATIONS...

CITY           SKY/WX    TMP DP  RH WIND       PRES   REMARKS
GOODLAND KS    CLOUDY    30  20  66 S9        30.35R
HILL CITY KS   CLOUDY    30  21  69 CALM      30.42R
IMPERIAL NEB     N/A     24  14  65 CALM      30.35R
MCCOOK NEB     CLOUDY    31  14  49 S3        30.38R
AKRON CO       CLOUDY    28  19  69 SE9       30.27R
BURLINGTON CO  CLOUDY    29  20  69 S7        30.32R
LIMON CO       CLOUDY    22  20  92 S6        30.26R
$$

...UNOFFICIAL OBSERVATIONS...

CITY           SKY/WX    TMP DP  RH WIND       PRES   REMARKS
COLBY KS       CLOUDY    30  25  80 S8        30.37S
GOVE KS          N/A     28  32 100 MISG        N/A
LENORA KS        N/A     30  32 100 S8          N/A
NORTON KS      MOCLDY    30  18  59 SW7       30.40R
SHARON SPRINGS   N/A     28  24  86 CALM        N/A
TRIBUNE KS     PTCLDY    27  27 100 SW6       30.38R
KIT CARSON CO    N/A     28  21  74 MISG        N/A
YUMA CO          N/A     28  18  65 CALM        N/A
$$


USA.gov is the U.S. government's official web portal to all federal, state and local government web resources and services.